Theta_e
319 319 319 319 320 319 319 319 319 320 320 320 320 320 321 321 322 322 323 323 323 324 325 326 326 327 327 327 328 327 324 323 321 316 316 317 327 334 334 337 336 337 336 326 319 312 307 308 308 310 311 314 315 312 313 316 314 315 304 299 295 296 297 301 299 298 300 298 298 299 300 300 298 301 303 304 303 303 302 302 306 307 308 310 318 325 325 324
318 318 319 319 319 319 318 318 319 320 319 320 320 320 320 321 321 321 322 323 324 324 325 326 326 326 327 327 327 326 323 327 317 315 319 326 333 334 334 335 335 334 332 323 313 307 306 306 308 307 309 308 316 312 314 313 314 308 299 298 295 298 298 301 301 301 300 299 300 300 300 300 300 301 301 299 299 299 300 302 304 304 306 307 314 321 322 322
318 318 318 318 319 319 318 318 318 319 318 318 319 319 319 319 320 321 321 322 323 324 324 325 326 326 326 326 326 324 326 325 316 311 321 333 334 334 335 334 333 334 322 317 314 310 308 308 308 306 306 304 307 307 311 309 310 306 303 297 298 302 299 302 303 301 302 302 300 300 300 301 301 301 303 299 298 299 298 298 299 301 304 305 310 316 319 321
318 317 317 318 318 318 317 317 317 318 318 318 318 318 318 319 320 321 322 322 322 323 324 325 325 326 325 324 326 323 324 326 308 313 323 331 332 333 331 332 332 328 325 324 319 312 310 309 308 306 310 306 305 310 305 308 305 304 302 297 300 300 299 300 302 301 301 302 301 300 301 301 302 303 301 300 297 298 299 301 301 301 303 306 307 313 317 319
319 318 317 317 317 317 316 316 317 317 317 318 318 317 318 318 319 320 321 321 322 323 324 324 325 325 325 325 324 326 329 301 306 317 318 330 331 330 328 331 333 321 315 315 312 310 309 307 307 307 308 300 303 304 300 304 307 307 297 300 300 301 298 301 300 300 300 301 302 300 298 300 303 303 301 300 296 296 300 303 303 304 306 308 306 311 315 318
319 318 317 317 316 316 316 316 316 317 317 318 317 317 317 318 319 319 320 320 321 322 323 324 325 324 324 324 323 328 317 291 314 322 327 328 331 327 326 329 329 321 314 311 310 312 308 307 306 306 302 301 299 297 300 301 305 299 299 299 300 300 299 302 301 298 299 302 300 299 302 302 300 300 301 300 299 301 304 305 306 307 310 310 309 311 312 315
319 318 318 317 316 316 316 316 315 316 317 317 317 317 317 318 319 319 319 320 320 322 323 324 324 325 323 322 328 322 308 313 314 327 329 327 328 331 326 325 328 319 313 311 310 310 308 305 305 302 301 303 299 299 301 301 304 300 295 299 299 301 300 301 299 300 299 301 300 302 302 301 299 297 301 300 302 303 305 306 305 306 311 311 309 310 311 313
319 319 318 318 316 315 315 315 315 316 316 316 316 316 317 318 318 319 319 319 320 321 323 323 324 323 322 329 321 311 308 308 318 324 322 326 321 317 325 322 316 321 314 310 310 307 307 304 302 307 302 299 301 301 304 302 302 299 297 300 300 301 300 299 298 299 301 301 301 302 300 299 301 300 299 299 302 303 304 305 305 305 306 309 311 310 311 311
318 318 318 316 315 315 315 315 316 316 315 316 316 316 316 317 318 318 318 319 320 321 322 323 324 323 322 318 315 308 302 320 322 320 321 321 314 313 322 319 317 312 311 312 311 310 311 307 304 306 299 300 305 300 302 300 297 302 299 300 301 300 301 299 299 301 301 301 302 300 299 301 301 301 299 301 302 303 304 304 305 305 303 304 309 311 310 311
318 317 315 314 314 314 314 314 316 316 315 315 315 316 316 317 317 318 318 319 319 320 322 323 323 322 320 321 315 298 317 316 321 319 317 315 313 313 316 316 314 313 312 310 312 310 310 307 308 311 312 302 306 300 303 302 298 303 300 301 301 300 300 301 301 300 302 302 300 299 299 300 301 300 294 303 304 304 303 304 305 304 303 303 304 309 310 310
318 317 316 315 314 313 314 314 315 315 314 314 315 315 316 317 317 317 318 319 319 320 322 323 323 322 326 317 306 297 321 319 320 315 315 316 314 314 314 313 313 314 313 312 311 311 311 311 310 309 309 301 303 300 301 301 303 303 302 300 299 301 301 300 302 300 300 300 300 301 299 301 301 301 297 303 304 305 304 304 304 304 302 302 303 304 307 309
318 317 316 315 314 313 313 314 314 314 313 314 315 316 316 317 317 317 318 319 319 321 322 322 322 320 314 312 304 306 316 317 317 315 321 318 316 317 317 315 315 319 312 311 315 316 315 314 314 307 299 305 298 301 300 303 303 302 301 297 299 300 299 299 299 300 300 299 301 302 298 296 297 296 301 303 304 304 304 303 303 304 303 303 303 303 304 306
317 317 316 315 314 314 313 313 313 313 313 315 315 316 316 316 317 318 318 319 320 321 322 322 321 324 319 302 312 319 319 316 316 313 318 317 316 316 319 320 320 314 313 311 311 315 316 313 312 307 308 305 301 296 302 305 303 303 302 298 298 297 296 300 302 300 299 300 301 300 288 292 297 300 302 304 303 303 303 301 301 303 303 303 303 303 304 307
318 317 316 316 315 314 313 313 313 313 314 315 315 316 317 317 317 318 318 319 320 321 322 321 321 316 311 301 312 320 318 318 315 314 319 320 317 321 316 321 318 314 317 310 314 313 319 313 316 307 312 303 299 307 303 302 303 297 299 299 294 293 292 300 301 299 298 300 300 301 290 291 297 301 302 303 304 302 300 300 300 302 303 303 303 304 305 307
318 317 316 316 315 314 312 312 313 314 314 315 315 316 316 317 317 318 319 320 321 322 321 321 320 321 302 306 315 319 327 319 315 315 319 315 314 315 314 315 312 312 310 312 316 316 312 316 316 306 300 306 305 302 297 297 297 298 292 290 294 292 295 299 302 299 296 299 301 299 291 292 297 298 302 304 303 302 300 300 300 302 303 304 304 305 305 306
318 317 316 315 314 313 312 312 313 314 314 314 315 315 316 317 318 318 319 320 322 322 322 322 322 316 302 299 315 324 323 311 310 320 315 318 317 316 315 315 317 315 313 309 314 312 311 313 305 304 301 303 301 297 295 295 295 297 292 292 292 293 294 296 298 301 302 299 300 297 290 294 297 300 301 301 301 301 299 300 301 302 303 303 304 304 305 305
317 317 316 315 314 313 312 312 313 314 314 315 315 315 316 317 319 320 321 322 322 321 321 316 312 309 299 310 310 310 308 316 315 320 317 315 315 314 314 316 313 311 315 314 318 316 310 307 305 304 307 297 297 299 293 290 291 291 294 289 296 292 292 290 296 298 302 299 294 296 293 293 296 298 300 301 302 301 299 300 301 302 300 301 303 304 304 305
317 316 315 314 314 313 312 312 314 314 315 315 314 316 317 320 321 320 321 318 321 318 316 314 314 309 297 302 302 304 314 312 318 315 317 314 312 312 315 309 312 310 312 307 312 307 309 303 302 298 297 299 297 295 289 286 291 290 290 290 290 294 293 291 292 296 298 297 294 294 294 294 297 299 299 300 301 301 300 300 300 301 301 301 302 303 304 304
317 316 315 315 315 314 312 313 314 315 314 315 316 318 319 320 318 318 315 314 313 299 298 300 300 291 293 298 309 311 317 317 315 316 308 314 318 317 313 313 313 305 304 302 301 304 306 303 304 298 292 292 294 295 293 296 295 293 295 295 293 292 291 290 295 297 298 294 293 293 291 294 295 297 298 300 301 301 301 301 301 301 301 301 302 302 303 304
316 316 315 315 315 314 312 313 314 314 314 314 314 315 315 307 309 304 311 309 302 301 304 306 302 302 305 308 308 311 315 316 307 312 315 313 316 312 308 308 313 309 302 299 303 302 306 297 292 291 295 296 296 297 298 296 295 294 295 295 291 292 293 294 295 297 297 294 292 293 293 294 295 297 298 299 299 299 298 298 300 301 301 301 301 301 302 303
316 316 315 315 315 315 314 314 314 314 315 315 316 314 297 297 293 292 302 304 304 312 306 305 307 306 306 309 309 309 305 307 310 310 315 318 312 307 304 305 303 301 300 304 302 303 305 296 295 297 297 298 298 297 297 296 294 294 294 294 291 295 290 296 296 297 298 294 291 293 292 294 296 297 298 299 299 299 300 300 300 300 301 302 302 302 302 303
316 315 315 314 315 315 315 314 314 315 316 315 314 313 309 303 313 312 304 293 301 311 306 309 306 306 311 309 311 313 314 303 307 309 316 315 308 302 302 302 299 295 299 300 298 296 294 292 296 299 299 299 298 297 296 294 296 295 293 292 292 291 295 297 296 297 297 294 290 293 292 293 296 297 299 299 299 300 301 301 300 300 300 301 302 302 303 303
317 316 315 315 315 315 315 315 314 315 313 311 310 312 311 318 317 318 315 303 297 311 307 307 302 304 307 310 314 313 305 300 300 307 307 314 305 304 302 298 297 297 299 299 294 293 291 293 298 300 299 296 296 295 296 297 297 294 292 290 288 295 292 288 296 296 297 294 291 292 292 293 296 298 299 300 300 300 301 302 302 302 302 302 302 301 303 303
317 317 316 315 315 314 315 314 314 312 311 311 312 313 319 319 317 316 313 299 297 303 306 307 306 305 303 303 310 308 304 302 305 303 310 309 302 306 303 299 297 297 296 297 296 293 293 298 299 299 299 297 295 296 294 291 289 294 296 293 292 294 295 292 292 297 297 297 297 294 293 293 296 296 297 300 301 300 301 301 302 303 304 304 304 305 305 303
317 317 317 316 315 315 314 314 310 309 312 311 311 317 320 319 318 316 312 299 298 302 309 308 309 310 307 313 316 305 305 304 308 308 309 308 303 301 301 303 298 294 297 298 296 294 296 299 302 297 299 297 297 292 294 294 288 292 295 295 294 296 293 295 296 295 290 288 295 295 283 283 293 295 296 298 299 298 299 299 301 301 302 302 303 304 304 306
317 317 317 316 316 315 316 308 308 311 310 309 314 318 320 317 319 310 308 294 288 298 302 293 306 298 314 305 311 310 302 298 308 310 309 311 310 304 302 298 299 294 296 297 295 295 295 298 301 298 297 296 297 295 296 297 290 289 291 298 299 298 295 296 294 292 283 281 293 295 282 281 290 291 294 297 297 297 299 299 301 301 302 301 303 304 304 305
317 317 317 316 316 316 307 303 313 313 306 307 317 319 319 316 315 316 296 289 284 296 291 306 300 300 311 305 306 305 288 292 308 309 308 313 305 310 297 295 297 298 300 300 292 291 296 297 298 299 298 296 295 291 297 296 290 287 296 299 298 296 295 295 295 294 290 293 295 296 291 283 285 288 294 296 296 296 296 298 299 301 301 301 302 304 304 304
317 317 317 317 317 315 310 314 311 308 306 312 316 319 319 318 319 309 295 279 278 299 296 294 305 310 311 306 307 297 298 303 298 303 306 311 308 303 299 296 295 296 299 296 285 298 297 295 297 296 296 293 292 297 298 298 293 294 295 300 297 297 298 295 293 290 290 287 284 289 292 283 283 289 294 295 293 293 295 296 297 299 299 300 302 304 304 305
317 317 317 317 317 316 315 313 311 307 314 317 318 319 319 317 312 295 287 278 297 295 308 295 313 309 305 305 302 301 299 302 296 303 310 308 308 303 295 297 298 296 299 297 290 296 298 298 299 300 294 292 296 294 298 299 292 295 299 299 298 298 296 296 290 289 287 284 282 288 292 282 284 290 290 292 292 292 294 296 297 298 299 304 303 304 304 304
318 317 317 317 316 313 312 312 310 317 316 317 317 318 318 312 299 288 282 273 300 290 299 299 299 297 301 297 297 299 297 299 301 302 304 301 304 307 301 303 300 297 296 299 297 295 297 298 297 299 296 299 294 295 296 297 297 299 299 297 295 293 292 290 290 286 284 280 282 291 292 288 280 289 289 290 293 294 295 295 296 300 302 304 305 305 303 303
317 318 317 317 310 311 311 306 310 318 317 317 317 315 310 305 290 282 275 286 299 297 298 295 295 301 295 294 291 296 298 298 299 300 297 303 298 301 300 296 302 296 291 294 292 295 298 297 297 298 298 298 298 295 298 299 299 299 294 291 292 289 288 286 285 286 280 279 285 292 292 289 278 283 293 294 296 295 295 294 295 298 299 303 305 303 301 301
317 318 318 315 314 314 306 305 315 317 316 317 315 307 299 286 290 280 279 295 288 292 292 291 297 296 295 296 295 293 293 297 299 298 295 295 294 294 294 289 292 285 284 285 287 293 292 293 296 296 298 299 296 293 293 296 297 297 292 290 283 281 282 280 283 280 280 278 282 287 291 287 285 287 292 295 295 297 297 299 299 299 299 300 304 301 299 299
317 317 317 316 314 311 311 316 317 316 316 315 311 303 292 284 276 286 287 289 287 296 293 299 295 295 295 294 293 294 298 292 298 297 298 297 294 294 297 295 296 291 283 288 287 285 289 294 295 295 295 297 299 289 287 285 291 293 289 285 281 278 277 273 277 282 281 282 285 285 287 284 288 289 295 296 297 297 298 300 301 302 300 299 300 301 300 299
317 317 314 315 315 314 315 316 316 315 312 311 304 296 293 281 279 293 289 290 294 299 299 296 295 295 294 290 293 295 291 296 296 296 297 294 294 291 293 296 296 293 293 287 285 286 281 282 291 293 289 297 297 295 293 289 291 292 294 291 284 281 277 273 277 275 277 280 284 285 281 280 280 288 294 297 299 297 298 299 299 301 301 301 301 300 301 299
317 316 316 315 314 315 315 316 315 315 311 307 298 291 282 280 286 285 286 290 296 299 296 299 294 292 291 295 296 296 295 291 297 296 295 293 290 291 291 292 296 296 294 286 288 286 286 285 294 298 296 297 295 300 301 295 290 291 294 296 287 284 287 278 281 282 279 279 279 280 281 283 287 295 295 297 298 296 298 298 298 300 300 300 300 302 300 299
315 314 316 312 312 314 316 316 315 313 309 300 292 286 283 286 283 290 289 300 299 295 295 296 295 290 289 290 295 293 297 294 295 295 293 294 294 291 296 295 294 296 293 286 289 283 286 284 293 297 298 295 294 299 300 297 283 289 291 285 288 294 291 284 282 282 280 279 279 282 284 288 290 294 295 296 297 297 296 296 297 298 299 300 299 300 300 302
312 314 309 312 312 315 315 316 314 310 307 298 289 283 289 291 294 295 301 297 298 297 294 288 289 289 288 288 289 292 294 297 294 293 288 295 292 295 294 297 298 297 298 294 289 294 285 287 290 293 291 294 294 295 298 296 299 292 283 289 295 296 293 286 279 281 280 277 279 280 281 283 282 283 292 292 292 294 294 296 298 299 299 298 299 299 300 301
311 310 310 311 313 316 315 315 312 308 302 296 287 290 293 290 297 297 303 300 298 298 293 290 291 294 289 289 288 291 294 290 292 291 288 293 287 299 296 295 299 298 299 299 289 292 294 283 287 290 291 293 296 296 295 297 297 293 290 298 290 281 281 284 281 275 273 273 276 280 282 284 286 287 289 290 291 293 295 296 297 297 297 298 299 300 300 302
310 308 302 310 316 316 314 314 310 303 296 291 288 288 293 293 298 297 302 301 300 297 292 293 291 293 293 289 291 292 293 286 292 289 287 289 286 296 296 298 296 300 300 299 292 292 292 284 285 288 291 294 294 292 285 287 295 298 297 292 296 287 284 282 282 281 280 274 275 278 280 282 289 288 291 292 294 295 296 295 295 296 297 299 299 300 302 302
306 301 300 313 315 315 314 312 305 298 292 286 289 289 296 293 297 299 300 301 298 295 293 293 295 291 293 293 293 289 292 291 291 290 290 292 290 298 296 300 297 297 299 299 295 296 287 288 281 285 291 292 284 289 287 289 287 285 286 284 289 286 289 286 286 283 279 277 276 276 278 283 289 294 294 295 296 297 296 296 297 297 298 299 300 303 303 303
307 301 302 313 314 314 312 306 298 291 288 292 294 292 295 295 298 298 301 303 301 302 295 294 295 292 293 293 292 294 291 291 292 290 290 292 291 286 297 298 300 296 298 297 295 293 286 283 282 284 284 284 287 293 294 294 293 291 289 287 290 286 283 280 279 288 284 282 277 278 278 285 294 297 296 295 298 298 296 297 298 298 299 299 302 302 302 301
301 294 300 313 313 312 304 295 289 289 288 288 288 293 294 301 299 297 298 303 302 298 303 301 297 296 295 294 294 293 292 290 292 291 291 290 294 293 298 301 300 300 296 291 292 297 292 288 284 281 284 287 291 294 295 294 295 295 291 289 292 289 286 282 277 280 285 283 284 281 278 284 293 295 295 295 295 296 298 297 300 300 299 302 303 301 301 301
298 297 308 311 312 309 301 291 288 286 286 291 298 295 297 298 299 301 297 300 298 301 299 296 296 294 297 296 295 293 293 289 292 291 293 292 294 296 301 301 302 299 298 292 297 295 295 285 283 283 289 292 291 294 294 294 295 292 292 290 290 288 289 286 283 282 282 281 282 281 278 284 294 292 293 290 291 293 295 296 299 299 300 301 301 300 300 299
300 299 302 310 312 308 298 285 284 285 287 290 293 293 298 296 296 297 297 298 296 297 296 295 297 297 296 299 297 293 295 286 293 293 291 294 291 302 301 301 302 297 296 294 292 296 286 285 285 281 282 283 286 289 289 291 291 286 286 291 292 292 292 290 287 285 283 284 285 282 278 284 295 292 294 294 294 297 297 296 298 299 299 302 301 300 299 299
301 302 302 303 309 306 294 293 288 286 287 286 287 287 291 293 296 297 297 297 299 297 296 295 296 297 295 299 297 298 296 293 288 295 295 294 295 298 300 302 301 297 300 302 298 299 290 288 286 280 278 276 276 278 279 281 285 286 286 289 293 292 292 289 285 284 282 285 285 282 283 289 292 292 294 292 292 295 294 296 297 298 301 302 302 300 299 299
295 286 296 298 302 301 300 300 294 290 287 286 286 288 291 289 294 297 298 295 298 298 297 299 297 297 297 296 295 294 294 296 293 290 293 292 292 292 299 301 300 300 299 297 298 296 287 289 289 286 284 283 284 285 289 290 285 284 286 290 291 293 294 292 286 284 283 286 282 285 287 288 290 291 293 292 291 294 294 295 295 297 296 296 298 300 300 299
299 291 292 287 297 297 296 298 294 293 287 290 285 289 286 289 292 294 298 292 297 297 297 297 297 293 293 294 293 294 295 294 294 292 292 293 293 294 296 298 301 298 295 297 297 292 286 287 289 289 288 289 290 291 292 291 288 288 288 288 291 291 291 290 287 286 290 283 282 288 289 287 290 292 292 293 293 292 293 295 296 294 295 299 299 298 298 298
289 294 297 299 292 286 290 292 295 292 292 292 288 292 288 287 289 288 295 296 298 298 292 294 294 296 295 293 294 289 293 293 293 290 294 293 290 293 291 295 296 297 295 296 299 293 288 287 290 290 289 291 291 290 293 292 291 290 289 289 289 291 290 288 289 291 290 285 284 289 289 288 291 293 293 292 295 296 295 296 297 298 297 297 298 299 299 298
297 296 296 301 292 295 293 296 296 293 291 292 289 292 288 288 287 290 292 292 293 294 295 287 291 293 294 297 294 290 291 287 288 292 290 290 289 288 286 289 293 295 296 294 294 293 290 287 289 291 289 290 291 291 292 291 290 290 290 290 291 290 290 291 290 292 291 289 291 291 291 290 293 295 296 295 298 299 299 300 300 299 299 298 298 298 298 298
291 291 290 298 296 294 294 295 295 293 289 291 286 287 290 289 288 291 294 293 288 291 296 291 292 293 294 294 295 291 293 294 293 289 293 292 289 289 289 291 286 287 289 290 293 292 291 287 292 288 286 287 289 291 290 290 289 286 289 291 292 291 291 291 291 291 291 291 292 292 291 290 295 298 297 299 298 298 298 298 299 299 299 299 299 299 299 299
298 297 297 293 290 292 294 294 293 292 289 289 287 289 290 291 290 293 293 297 293 290 293 291 293 293 294 293 293 293 296 296 295 295 296 294 290 293 289 288 292 287 289 289 289 289 291 285 288 286 284 285 288 287 286 287 287 286 286 288 289 290 287 289 288 292 289 288 289 289 288 289 295 297 297 298 298 297 297 298 299 299 300 300 299 299 300 300
298 301 299 295 288 294 291 293 293 292 286 289 289 290 289 290 293 294 290 296 297 297 296 295 295 293 292 292 291 293 297 298 297 298 298 298 299 297 297 295 294 291 288 289 290 288 288 287 286 286 284 284 288 287 284 285 286 285 286 289 291 291 292 292 293 294 293 293 288 286 288 294 296 297 295 296 297 297 298 299 299 299 299 299 299 300 301 300
Wind_Speed
9 9 8 8 7 7 6 5 5 4 3 2 1 1 1 2 4 4 5 6 7 7 8 8 8 8 9 9 9 9 8 2 3 4 7 2 1 1 1 3 4 6 5 5 4 4 3 4 3 2 2 1 0 0 1 0 1 0 1 1 3 4 2 2 1 3 6 5 5 5 6 5 4 2 1 0 1 0 4 1 4 5 6 6 6 7 8 7
9 9 9 8 8 7 6 5 5 4 2 2 1 1 2 3 4 5 5 6 7 7 8 8 8 8 9 9 9 7 5 1 4 6 1 2 0 2 4 4 4 4 4 3 4 5 6 4 2 3 3 1 1 1 1 1 0 1 2 3 3 3 0 4 5 6 1 5 6 5 5 4 5 8 3 2 3 4 3 3 5 5 6 6 5 8 8 8
9 9 9 8 8 7 6 5 5 4 3 2 1 2 3 4 4 5 6 7 7 8 8 8 8 9 9 9 9 7 3 2 3 4 2 2 2 4 4 3 4 2 1 3 3 6 5 7 2 3 3 2 2 1 1 1 1 1 1 3 1 1 5 7 7 4 4 3 6 5 4 1 4 4 3 2 4 8 6 5 5 6 6 8 7 7 8 7
10 10 8 8 7 7 6 5 5 5 4 3 2 3 3 4 5 6 7 7 8 8 8 8 8 9 9 10 8 6 2 2 3 4 2 4 4 3 4 5 4 5 5 6 6 5 4 5 1 4 1 2 1 1 2 2 1 0 0 1 1 3 2 4 5 5 3 4 6 4 2 1 2 1 3 3 3 4 6 6 6 9 9 11 10 9 8 8
11 10 10 8 8 7 6 6 6 5 4 4 3 4 4 5 5 6 7 7 8 8 9 9 9 9 9 9 11 3 0 1 1 2 2 3 3 3 3 5 5 4 4 5 5 5 4 4 2 3 2 2 3 2 2 2 0 1 1 2 3 5 4 3 4 5 4 4 4 4 4 2 3 2 2 3 4 2 0 0 0 1 4 13 12 9 7 8
11 9 10 9 8 8 7 6 6 6 5 4 3 3 4 5 5 6 7 7 8 8 9 9 9 10 10 9 5 2 1 2 0 1 2 3 3 2 4 6 6 4 4 4 3 1 3 3 3 2 2 2 4 3 3 2 1 0 1 2 3 3 4 1 2 4 4 2 4 4 1 4 3 2 4 4 6 2 3 6 6 4 8 12 10 10 8 8
11 9 9 9 8 8 7 7 6 6 6 5 4 4 5 5 5 6 6 7 7 8 9 9 9 10 12 8 3 2 3 1 0 1 1 4 5 3 4 5 5 4 2 3 4 2 3 3 3 4 3 1 5 2 1 3 2 1 2 2 3 4 5 5 3 2 3 6 3 2 2 1 3 2 1 6 6 3 4 6 7 6 8 11 11 9 11 10
11 9 8 7 7 7 7 7 7 7 6 5 5 5 5 6 6 6 6 6 7 8 8 9 9 9 10 2 1 2 2 2 2 3 0 2 6 2 1 3 4 2 4 2 2 3 2 4 5 2 2 1 3 3 0 2 2 2 3 3 1 4 3 4 3 1 1 3 2 4 0 2 1 0 3 4 5 4 2 5 6 6 5 6 9 9 8 8
12 7 4 5 6 6 7 7 8 7 6 6 5 5 6 6 6 6 6 6 7 8 8 8 9 9 6 3 2 2 3 1 4 3 3 3 5 5 2 2 3 4 2 1 1 3 2 2 4 2 1 4 0 4 0 1 2 2 4 4 3 4 4 3 3 2 1 2 0 1 2 2 3 3 4 8 6 5 3 4 5 6 5 5 7 8 8 8
11 11 9 5 4 7 6 5 8 7 6 6 6 6 6 6 6 7 7 7 7 7 8 8 9 9 4 2 1 2 1 6 3 1 3 2 6 6 3 4 5 5 3 2 2 5 0 4 4 2 2 4 1 2 1 1 0 1 4 3 4 4 3 1 2 3 1 2 2 1 3 1 2 4 5 2 6 8 4 5 5 6 5 6 5 6 7 8
12 11 10 10 8 9 9 9 9 7 7 6 7 6 6 6 6 6 6 7 6 7 7 8 8 8 2 2 2 3 1 3 2 1 2 4 4 4 3 4 3 4 4 4 5 2 3 2 4 2 1 2 3 3 4 0 2 1 3 4 4 3 3 2 2 4 2 1 2 1 3 1 2 1 8 3 1 3 6 5 5 4 4 5 6 5 6 7
13 12 10 9 9 9 9 10 9 8 6 8 7 6 6 5 6 6 6 6 6 6 6 7 8 3 2 2 4 1 3 3 2 2 1 2 2 1 3 2 3 3 4 1 2 2 2 2 4 2 0 4 2 3 1 1 2 1 2 2 4 4 3 4 4 4 3 1 2 1 1 5 4 6 14 5 4 3 4 4 5 4 4 5 5 6 5 6
12 12 12 10 9 8 10 9 9 8 7 8 7 5 5 6 6 6 5 5 4 6 6 6 7 3 1 2 1 1 1 1 1 4 1 1 2 1 0 1 2 3 4 3 1 1 2 2 2 1 2 1 2 1 2 2 1 0 0 2 3 3 3 7 2 4 2 1 2 4 2 5 10 15 9 5 6 4 4 4 4 5 5 5 5 5 5 4
12 13 11 10 9 9 10 10 9 8 9 7 6 5 6 6 6 6 4 5 6 5 4 5 2 3 1 0 0 1 2 2 1 2 1 1 2 1 1 1 3 3 4 6 1 1 2 2 1 4 1 4 2 2 1 1 1 1 2 1 1 1 1 5 3 3 2 1 3 1 2 7 5 3 4 5 6 7 5 5 5 5 5 5 5 5 6 6
13 11 11 10 9 8 9 10 8 8 8 7 7 6 6 8 7 6 5 6 5 3 4 4 3 1 2 2 1 1 3 3 2 3 3 4 2 2 2 2 4 4 3 2 1 1 2 2 2 1 2 1 3 2 3 2 2 1 2 3 2 2 1 1 2 5 4 0 3 2 2 7 9 3 3 2 3 4 4 4 5 6 6 6 6 6 6 8
12 11 12 10 9 7 10 9 9 9 7 8 7 7 8 8 7 7 6 7 8 6 3 2 3 1 2 3 1 2 1 2 4 1 1 2 3 1 3 3 1 1 1 2 1 2 1 3 3 1 2 1 1 2 3 2 1 2 3 1 3 2 2 1 3 0 3 3 1 5 4 3 2 1 3 4 4 4 4 5 5 6 6 7 7 7 7 6
13 12 12 10 9 9 9 9 10 8 8 7 6 9 11 11 9 7 7 5 4 4 3 1 2 3 2 1 2 2 4 2 1 1 0 1 1 2 3 2 1 2 0 1 0 2 1 1 1 2 1 2 3 3 2 1 1 3 3 4 0 3 3 3 2 3 0 2 2 4 4 5 5 2 3 3 5 5 5 6 6 6 5 6 7 8 8 8
13 13 11 10 10 11 10 9 9 9 8 6 7 7 7 6 6 8 5 3 2 3 4 3 1 1 2 2 2 3 4 4 2 2 2 2 2 2 0 1 1 2 2 2 0 0 1 1 1 1 3 2 3 3 3 3 4 3 4 2 3 1 3 2 3 3 2 1 2 2 7 9 9 11 7 5 5 6 8 7 7 8 8 8 7 7 8 8
15 13 12 12 11 11 10 10 9 9 7 7 8 10 12 12 5 4 2 2 3 3 2 4 4 5 1 7 5 5 3 1 3 0 2 1 0 1 1 0 3 3 2 2 0 0 0 2 0 2 4 4 4 4 6 2 3 5 3 1 1 0 2 3 2 2 3 3 3 5 8 8 7 7 7 8 8 10 10 9 8 8 8 8 8 7 7 8
15 14 12 11 10 10 11 10 10 8 8 6 5 4 2 2 1 2 2 2 5 1 3 4 8 5 5 6 4 1 3 3 3 2 3 2 1 2 3 3 2 2 1 2 1 0 1 2 3 3 4 6 5 5 2 4 4 1 1 0 2 2 5 4 2 2 0 1 5 7 7 9 11 9 9 8 6 7 7 7 7 8 8 8 8 7 7 8
14 13 12 11 11 11 10 11 9 9 9 6 6 4 4 8 6 5 5 3 6 1 2 5 2 2 4 7 5 6 7 1 2 3 1 1 3 3 3 3 2 2 3 1 3 0 0 1 3 5 2 4 0 4 3 3 4 2 2 2 3 1 3 3 3 2 0 0 2 4 5 8 12 10 7 6 7 11 11 11 10 9 9 9 8 8 9 9
12 12 11 12 11 12 11 11 9 8 1 5 5 6 2 2 1 1 2 2 5 2 1 2 2 4 1 7 4 2 2 4 2 3 1 0 2 3 4 3 5 4 4 4 4 2 1 4 4 2 3 3 4 4 5 4 1 3 1 1 1 4 2 0 7 3 2 3 6 7 8 9 10 11 9 10 12 11 11 10 8 8 10 9 7 8 9 7
13 12 12 11 11 11 11 9 9 6 4 5 6 6 1 1 1 1 1 1 4 1 2 1 2 6 3 3 1 1 3 4 5 4 4 1 4 2 6 5 5 3 5 5 4 4 2 5 5 3 3 4 4 3 1 1 1 0 2 1 3 1 2 3 0 1 4 3 3 2 9 12 13 14 19 19 12 9 6 7 9 9 12 13 9 6 6 7
13 12 12 12 11 11 10 9 6 5 7 8 7 3 1 1 2 3 0 3 2 1 2 2 1 3 5 4 3 4 4 2 6 7 4 3 6 2 2 6 6 4 5 6 6 5 3 1 1 2 2 2 3 2 3 3 2 3 2 2 3 1 1 2 2 2 3 2 1 3 9 11 10 9 9 11 10 8 10 6 8 11 10 9 6 5 5 6
13 12 12 12 11 11 9 9 5 6 6 7 10 7 1 2 1 2 0 1 0 1 4 2 3 2 3 1 2 3 0 2 2 6 6 5 5 2 3 3 3 5 4 5 5 5 2 0 1 4 1 2 2 3 4 3 3 3 5 7 4 2 4 5 5 6 5 2 1 1 7 5 1 7 8 6 1 6 6 6 10 11 9 7 7 10 6 6
14 12 13 12 12 12 12 6 6 6 7 6 2 1 2 2 1 1 1 1 4 3 2 6 4 4 4 2 3 1 2 2 3 2 7 0 4 1 2 1 1 3 6 5 4 2 1 0 1 5 4 2 1 1 3 2 3 1 1 3 2 1 3 3 4 4 3 2 2 2 1 10 1 2 4 3 5 6 4 7 10 9 8 5 7 7 6 7
14 14 13 13 14 14 8 3 7 7 4 4 3 2 2 1 3 1 1 1 5 5 8 1 2 1 1 5 6 2 3 4 1 3 2 3 2 2 3 3 2 1 2 1 4 2 3 1 4 2 5 4 3 1 2 6 2 2 1 2 1 2 1 1 1 0 4 3 6 4 5 6 13 6 9 10 6 6 6 9 9 10 7 6 6 6 6 6
15 14 14 15 15 16 2 2 8 8 1 0 2 2 2 0 1 0 1 3 4 6 3 4 1 3 1 6 6 5 2 11 4 2 3 1 0 1 1 3 7 4 1 4 6 2 1 5 4 4 2 3 5 1 2 6 2 1 1 3 3 3 3 1 1 2 3 5 8 3 4 0 8 1 7 10 7 6 8 9 7 8 6 6 6 6 6 5
16 15 15 13 15 20 7 3 2 4 2 0 2 1 1 2 1 3 2 3 2 3 4 7 2 1 4 5 5 4 3 1 1 3 1 2 3 0 4 3 3 5 5 4 3 1 3 1 1 3 5 4 2 1 4 4 3 2 1 2 3 3 1 1 1 1 3 2 9 6 4 3 13 11 3 5 6 6 9 7 7 8 5 3 5 5 5 5
17 16 15 14 11 10 8 5 5 3 2 2 2 2 1 1 2 4 6 7 4 3 1 2 2 9 7 10 6 5 4 1 3 2 3 2 2 0 1 1 1 3 4 3 5 1 0 3 4 1 2 1 3 3 3 6 3 5 3 4 1 2 1 1 0 1 3 3 8 9 9 3 7 4 5 7 4 8 6 4 4 2 2 4 4 6 5 5
18 17 16 16 8 4 3 4 7 1 2 1 2 3 2 0 3 5 6 4 4 3 1 3 4 11 14 15 9 5 4 4 3 7 4 1 1 2 1 1 3 3 4 1 0 2 1 1 0 0 0 3 4 4 4 2 2 3 2 1 1 1 3 1 1 1 1 7 1 9 9 9 5 3 4 2 3 5 7 5 4 2 0 2 5 5 5 5
18 19 20 13 5 5 9 1 2 4 1 1 2 4 4 4 3 7 5 4 3 5 7 5 6 10 14 8 7 11 9 5 6 8 9 6 6 7 7 7 5 3 2 5 3 1 1 2 2 2 5 3 3 6 3 2 0 0 3 2 5 2 2 1 1 1 5 8 2 1 6 1 17 5 3 3 3 1 1 1 1 0 1 2 3 5 5 5
16 17 21 13 8 6 6 1 0 3 2 2 2 4 4 5 8 6 6 7 3 6 5 8 12 12 10 9 6 7 5 8 7 4 6 4 7 7 7 8 9 8 4 6 5 3 2 2 4 3 3 4 3 7 3 1 4 4 6 6 5 2 2 4 4 3 3 3 1 1 4 7 4 2 8 10 8 5 1 3 3 1 4 5 2 5 5 5
18 16 12 10 10 7 4 4 1 3 5 2 3 5 1 7 5 9 10 8 1 2 9 6 11 9 13 12 8 10 4 2 10 5 7 5 6 7 7 9 6 7 1 4 8 7 3 4 5 6 4 7 6 8 11 6 9 10 4 9 8 7 4 4 4 5 6 3 0 2 2 7 1 2 2 11 11 6 6 7 6 5 5 5 2 6 5 5
20 16 11 9 8 8 6 6 5 3 3 4 6 9 10 8 7 13 14 7 2 2 3 7 11 12 9 2 2 9 2 3 8 7 7 9 9 7 9 10 9 5 2 2 3 2 11 5 1 11 1 11 11 4 1 5 2 4 3 1 3 8 1 3 1 0 1 3 3 2 6 2 4 0 1 3 1 6 9 9 6 5 6 7 4 4 4 5
12 9 10 8 10 9 6 5 5 5 4 7 7 9 12 11 9 9 6 5 2 5 8 7 4 8 7 5 1 8 5 3 7 5 5 8 5 8 7 6 11 14 8 9 3 3 2 4 1 3 3 8 4 0 2 4 5 5 5 6 5 1 2 1 2 2 3 2 12 3 8 8 4 13 11 13 11 8 5 5 6 7 8 8 7 3 4 4
6 7 7 9 10 9 9 6 5 4 2 6 11 11 11 9 10 5 2 8 7 14 8 10 5 7 8 7 5 4 2 4 5 5 5 4 4 7 7 7 9 11 13 10 3 3 7 2 2 1 3 1 1 2 1 3 1 6 2 4 1 3 3 3 3 0 2 6 8 4 11 11 1 12 2 8 6 8 6 8 9 9 8 7 6 6 5 3
5 4 6 9 10 10 10 10 8 4 2 6 12 13 7 12 9 5 5 9 11 10 7 8 3 7 6 7 6 7 4 8 8 5 4 10 4 7 10 5 10 14 16 8 5 2 3 1 2 2 3 2 3 1 1 2 4 2 4 2 4 2 2 2 3 5 4 4 5 6 6 11 10 13 2 2 6 8 9 10 7 6 5 7 7 7 4 3
2 2 4 8 10 12 11 11 9 6 5 8 10 15 9 14 10 9 4 9 6 8 10 6 4 6 5 9 5 6 10 9 10 8 7 4 5 7 14 9 5 12 13 12 7 1 1 4 1 2 2 1 1 3 8 3 2 1 2 2 1 1 1 6 6 1 3 5 1 11 2 14 3 5 6 10 11 10 10 8 6 6 7 8 7 6 5 5
4 3 6 7 14 14 11 13 10 8 4 14 14 12 8 9 7 8 8 10 5 9 6 7 7 6 8 5 11 8 8 6 11 8 7 4 7 2 9 11 5 7 11 12 6 4 1 3 5 0 5 1 2 5 7 9 9 3 1 2 0 1 1 2 2 4 3 1 4 3 10 9 1 7 7 10 9 10 9 9 7 6 7 7 7 6 5 6
1 2 1 9 13 12 11 8 9 14 13 7 11 12 6 2 3 6 9 12 4 6 2 8 8 11 8 8 7 7 6 8 7 7 6 4 9 3 6 9 8 6 6 7 8 4 2 3 6 3 0 5 6 5 11 10 14 12 14 13 14 9 4 3 7 1 2 3 3 2 11 14 1 5 4 3 9 10 5 6 6 7 6 5 4 4 5 5
2 7 3 10 15 16 13 9 2 2 3 16 18 11 5 4 2 9 8 3 7 3 2 2 7 6 9 9 8 9 6 7 7 7 6 9 10 7 3 12 10 12 12 8 13 11 6 3 3 5 8 8 2 0 1 3 1 1 5 7 6 5 3 3 5 4 0 4 3 3 2 21 1 4 2 4 4 5 4 3 1 4 5 6 5 5 5 5
4 3 3 12 16 18 12 5 4 4 5 4 6 4 1 2 2 3 9 4 4 4 3 6 8 7 7 7 7 7 12 5 11 9 7 10 7 10 5 13 11 12 10 1 2 1 6 2 1 3 2 2 3 1 3 2 1 2 2 2 4 8 8 7 6 4 4 2 4 5 5 13 2 3 2 3 1 1 2 2 4 1 4 5 6 6 6 4
3 4 1 5 13 13 13 8 6 8 7 2 6 6 3 4 3 2 3 7 8 5 7 4 4 9 3 8 6 10 13 5 9 11 7 7 4 5 10 9 15 7 10 8 9 9 5 3 5 3 0 1 1 1 1 2 1 0 1 3 4 4 8 5 1 1 4 8 11 8 12 15 0 3 1 1 2 1 2 5 3 4 3 2 2 4 4 5
2 0 1 2 6 8 13 7 7 7 9 4 7 12 9 4 3 5 3 3 3 5 4 6 6 6 6 3 7 7 13 14 2 12 6 6 6 2 5 14 16 10 6 6 7 11 5 6 8 6 9 8 7 7 6 4 7 3 3 6 8 8 8 6 8 6 8 13 12 6 11 14 2 3 2 2 0 1 4 5 2 1 1 1 4 6 4 2
4 5 3 2 5 8 7 4 7 6 9 7 6 10 14 8 4 4 2 5 1 4 2 2 4 5 4 2 3 5 7 12 11 4 10 5 1 1 2 6 14 8 6 8 8 12 3 5 10 11 11 13 12 2 4 9 5 6 8 13 11 11 10 8 4 6 15 14 5 11 16 19 16 3 1 0 0 3 3 2 2 3 4 6 5 4 3 4
1 6 4 4 1 6 9 7 10 9 9 12 8 7 12 17 12 4 7 1 2 1 2 1 1 9 6 7 9 6 6 6 12 5 8 7 2 1 5 5 3 5 9 3 6 5 2 4 10 13 15 16 12 4 4 16 14 15 15 13 15 13 13 13 13 18 14 3 14 14 9 11 25 12 7 8 6 5 5 4 6 5 5 7 7 6 7 5
6 2 4 2 3 2 7 12 10 10 6 12 5 6 11 15 14 10 5 9 2 0 2 2 2 5 11 16 9 9 7 8 8 12 5 4 4 1 1 2 1 2 0 1 1 4 5 8 8 10 13 15 14 8 9 9 10 11 13 12 13 14 12 16 20 21 9 10 16 15 6 12 20 15 5 6 8 8 6 8 6 7 5 3 5 7 8 7
4 3 3 2 3 1 6 1 14 12 11 12 5 6 9 13 15 16 7 8 9 3 5 4 7 8 4 4 12 10 11 8 10 7 7 3 6 4 2 2 4 2 0 2 2 1 3 5 6 10 12 13 14 13 6 9 4 5 10 12 14 17 20 22 21 18 15 12 14 18 18 17 18 22 14 5 11 12 11 11 11 11 11 9 8 8 8 7
6 6 3 2 2 1 1 1 5 12 11 15 9 10 9 14 15 13 7 7 6 12 7 11 12 8 6 4 7 13 12 13 11 13 5 6 5 6 8 7 4 1 1 4 3 2 5 7 11 4 5 10 14 11 6 7 5 4 3 5 13 18 20 21 17 14 12 15 17 20 20 21 20 17 12 10 8 7 8 11 12 12 12 11 11 9 8 8
3 2 2 1 4 6 4 2 3 7 9 11 10 7 7 12 15 15 14 13 15 12 12 18 17 11 7 6 5 6 3 2 5 2 3 10 12 3 4 2 6 6 5 4 2 1 4 3 2 3 7 10 10 8 5 1 1 2 6 11 14 14 12 8 9 9 12 15 14 10 13 18 22 7 7 13 10 7 13 14 12 10 11 12 12 13 11 10
5 2 1 1 4 3 7 5 5 5 8 6 10 11 9 15 8 8 5 5 9 9 11 19 19 13 10 10 12 14 10 5 4 2 7 8 7 6 4 2 6 9 7 7 1 5 5 4 4 4 8 12 13 3 4 4 1 6 15 22 22 12 6 4 7 11 14 10 8 11 17 16 16 13 9 12 13 11 13 15 15 13 9 7 9 12 11 8
Wind_Direction
192 198 188 195 195 195 202 209 213 219 222 223 253 37 42 26 22 11 11 8 6 4 2 360 0 352 344 345 347 342 334 299 212 219 224 63 322 34 32 328 334 320 339 318 268 246 249 216 206 174 176 199 74 43 250 100 15 2 239 218 262 218 100 169 136 125 148 125 151 165 180 151 127 167 126 44 93 285 114 187 97 71 61 100 115 116 112 120
187 196 196 198 197 193 205 214 216 217 220 265 260 351 18 20 11 7 2 6 7 2 359 360 355 350 344 342 342 335 322 263 252 239 51 42 334 15 18 353 320 320 310 255 229 214 248 171 181 191 197 181 232 111 237 91 48 165 253 195 254 9 289 349 63 47 59 133 155 163 190 196 165 151 159 154 194 192 166 215 149 132 107 101 124 122 135 143
172 201 202 204 195 197 207 220 227 222 242 288 297 332 4 4 6 358 0 2 3 1 357 356 355 345 344 339 331 315 286 223 265 225 112 17 25 23 4 332 303 285 224 304 311 315 301 329 143 206 230 130 247 139 282 137 117 244 71 255 56 107 51 37 51 70 38 115 141 150 186 204 105 142 130 215 195 174 201 188 183 181 172 164 152 155 147 161
167 200 205 215 205 205 213 223 229 224 249 259 312 334 351 355 352 359 4 360 360 357 355 353 350 347 338 329 324 309 262 305 252 99 87 16 23 7 349 309 292 274 238 250 255 284 309 275 247 220 201 244 136 78 140 182 123 33 132 33 352 314 91 34 42 32 32 18 133 137 90 150 145 105 166 187 277 216 202 204 172 199 184 174 159 158 157 166
168 188 202 203 210 213 219 231 230 242 245 253 305 325 343 338 344 351 356 359 353 353 354 348 349 344 336 322 311 271 302 293 137 46 11 333 355 355 310 296 291 289 252 277 276 247 247 254 225 239 258 169 125 134 212 118 19 259 82 87 354 357 79 45 59 13 2 322 112 105 124 198 81 58 205 221 197 240 295 307 127 101 185 150 157 161 159 172
165 186 203 204 208 216 220 229 240 245 252 254 268 320 321 328 333 342 349 351 351 349 348 352 346 342 330 318 302 246 282 206 292 116 274 333 316 302 294 280 288 285 285 259 262 200 267 240 206 230 208 223 149 188 138 110 104 135 122 76 40 7 100 91 71 342 342 45 105 143 195 93 128 178 198 244 227 134 138 97 76 56 102 141 142 148 168 176
163 181 208 210 209 217 226 230 238 248 254 257 273 296 318 317 328 330 342 344 345 344 347 347 347 339 326 309 233 270 238 73 244 201 119 324 300 262 278 266 260 270 265 271 226 241 213 234 226 197 230 162 164 110 159 133 133 328 99 123 49 48 78 51 87 355 8 11 55 18 356 114 139 257 171 207 234 226 112 110 106 98 107 128 143 164 174 183
157 178 202 211 212 222 229 236 240 244 251 260 274 292 299 314 317 325 335 336 339 339 345 345 341 337 336 262 157 194 222 134 83 176 28 286 289 295 207 251 257 275 270 276 306 238 187 250 199 252 277 341 149 127 193 151 153 234 118 101 118 88 86 96 119 85 55 53 0 10 36 256 222 241 22 266 246 249 134 119 115 111 119 146 147 171 179 182
153 149 166 155 206 230 235 244 241 245 251 261 273 283 294 307 315 324 326 331 333 337 339 341 338 330 302 287 237 284 199 51 343 337 7 356 316 295 249 329 207 246 258 253 301 302 346 229 257 77 337 121 335 108 325 27 125 8 90 114 128 95 116 123 112 123 128 98 29 101 255 244 51 32 254 245 248 231 198 124 129 131 136 178 170 177 178 185
150 153 145 149 182 244 250 315 287 242 254 266 277 287 295 300 310 315 320 324 328 333 335 336 340 328 304 229 211 252 133 261 295 352 8 332 303 283 249 17 357 315 270 27 335 358 22 354 1 351 37 51 343 66 276 27 153 314 133 106 111 130 116 242 142 145 179 112 183 232 240 185 48 88 273 236 241 206 193 149 145 147 171 179 190 181 186 186
159 159 156 163 179 236 245 253 260 250 262 281 284 286 288 292 302 312 322 321 325 324 332 335 341 322 238 236 255 220 234 282 334 349 358 295 315 12 17 343 341 332 356 95 55 357 342 355 346 338 34 108 104 56 40 115 290 96 102 92 102 143 117 171 162 142 153 132 175 240 290 58 163 132 235 191 296 127 159 180 155 175 195 199 196 195 192 193
167 167 172 178 184 205 237 240 246 256 272 278 278 279 288 294 307 314 319 324 308 323 333 337 332 306 272 272 237 341 285 350 301 314 317 341 62 155 327 340 312 342 320 106 65 24 11 329 330 5 194 337 107 113 68 236 241 112 212 160 159 143 162 182 176 176 209 116 217 54 308 269 204 219 242 189 148 157 182 188 187 184 206 219 209 195 195 198
167 171 178 178 189 208 228 236 245 255 266 266 271 281 296 303 305 312 313 313 325 324 328 347 321 247 300 207 69 248 297 331 356 275 103 79 145 179 167 295 328 21 3 71 88 332 314 302 326 60 11 284 84 133 172 257 79 205 142 311 148 187 233 188 160 110 140 98 153 106 345 251 222 226 247 148 146 145 169 203 191 192 200 207 204 193 197 192
169 175 179 183 188 208 228 232 241 249 253 253 263 279 296 307 312 304 304 297 302 301 325 329 316 267 269 27 99 80 326 323 284 253 59 314 256 348 79 32 42 44 44 89 99 253 297 286 304 112 81 43 148 265 153 142 112 176 176 145 242 142 292 135 136 135 186 131 158 64 211 296 310 233 165 152 149 157 194 208 221 219 204 198 200 197 200 207
174 172 178 185 199 206 222 229 234 239 243 249 261 279 297 306 306 302 294 288 261 290 311 288 226 231 211 89 266 102 337 284 275 79 31 354 134 118 92 63 42 45 48 64 102 262 245 291 348 111 49 305 86 141 148 165 195 255 80 263 244 217 108 231 68 151 189 242 201 146 254 253 264 135 123 117 136 175 207 224 222 215 207 195 195 201 204 211
171 173 182 186 199 198 220 224 232 233 233 247 257 275 283 288 297 292 280 275 289 281 259 234 176 310 321 201 75 316 285 208 135 58 60 278 5 121 110 100 150 141 152 22 303 285 286 51 62 63 131 350 215 205 180 111 228 226 174 271 176 198 179 177 242 191 2 114 244 180 237 320 46 207 141 180 174 177 206 232 236 233 219 198 196 199 207 210
171 174 176 177 184 210 215 221 227 227 234 242 260 263 262 264 275 274 269 276 266 201 223 323 147 157 260 0 298 227 185 70 284 153 274 43 321 134 135 165 141 107 50 213 327 305 3 72 294 13 325 215 201 218 144 224 264 214 173 217 243 173 172 196 5 281 176 269 195 219 250 236 278 217 224 219 189 182 204 218 226 231 231 221 205 201 200 202
176 177 174 173 179 209 210 220 220 224 232 244 258 279 281 280 279 276 237 225 223 219 225 197 239 160 231 26 198 164 87 116 112 103 14 337 313 282 37 179 150 158 175 145 25 94 20 70 36 196 157 255 221 216 137 202 204 199 184 218 287 234 255 246 169 184 184 141 281 256 228 249 246 269 263 220 219 215 222 222 228 234 235 238 230 211 203 203
178 172 174 173 183 199 204 212 226 232 232 247 259 268 273 273 259 246 204 158 166 120 194 182 173 177 251 176 111 92 55 100 92 191 172 197 259 341 258 261 209 158 182 199 222 227 193 75 109 329 163 208 219 199 183 279 45 14 85 183 294 295 205 231 85 202 170 180 218 235 249 263 256 249 245 248 224 218 233 236 237 237 235 236 233 226 211 210
172 175 172 173 181 195 200 206 223 222 223 238 237 245 207 138 170 143 186 215 231 125 346 150 181 81 112 88 87 6 174 246 135 15 81 352 172 216 213 187 65 328 198 190 153 264 40 146 176 195 208 192 198 218 202 65 39 11 9 31 322 358 315 76 83 113 294 19 256 247 260 269 267 254 257 260 268 269 260 245 235 231 236 235 234 232 227 218
169 169 171 180 181 187 192 208 209 218 226 247 252 239 179 176 147 182 156 217 243 62 43 35 359 50 81 108 129 164 120 88 290 163 197 358 308 197 164 175 149 206 233 106 119 184 92 232 216 223 212 34 172 172 86 77 35 32 13 21 315 247 239 283 156 164 342 53 276 278 277 267 272 270 259 245 233 242 245 252 251 250 241 236 228 228 229 231
169 168 171 185 183 186 196 203 202 209 352 254 252 226 331 117 347 324 152 176 236 131 96 66 236 87 99 128 176 18 294 119 150 131 147 278 197 182 154 209 167 206 149 81 75 64 80 193 234 189 81 88 50 55 55 35 16 85 340 326 338 291 287 345 87 136 140 128 264 265 261 258 258 265 264 245 236 232 232 238 247 247 256 252 229 221 223 222
165 174 175 176 183 186 194 195 207 212 227 228 226 245 281 346 304 238 268 156 176 102 173 179 168 127 105 18 211 165 196 155 168 172 176 181 160 260 139 198 188 184 128 160 147 160 192 227 232 100 98 101 67 67 60 133 79 189 165 27 227 214 77 294 265 196 176 175 248 328 302 272 259 255 255 254 248 249 234 231 241 234 248 250 244 222 215 212
168 174 176 176 171 187 187 183 194 217 231 231 255 232 78 293 316 278 249 185 163 188 198 177 282 159 154 149 168 175 205 156 128 173 138 179 181 148 207 197 196 191 173 188 194 184 187 102 345 84 92 104 121 99 126 121 221 212 210 236 240 204 233 164 301 342 288 234 66 309 273 269 238 237 251 263 246 245 253 250 255 253 246 249 255 255 222 212
170 173 171 175 173 170 172 159 190 216 211 243 257 272 33 53 260 313 135 219 251 134 314 355 130 268 146 337 115 188 146 28 348 145 160 194 157 108 225 195 227 204 200 185 208 229 172 299 109 99 82 93 116 149 191 155 261 206 212 196 211 305 355 359 358 5 347 328 31 9 344 298 295 198 222 254 169 223 234 218 240 244 248 245 242 243 243 241
171 173 170 172 172 158 155 171 212 191 212 216 246 177 132 121 347 339 58 209 238 140 63 207 105 204 119 150 96 228 50 194 358 90 144 356 337 214 70 273 133 220 190 183 206 197 164 255 246 130 130 114 136 184 195 146 202 341 277 0 30 359 46 20 339 39 329 302 246 136 79 280 82 275 220 214 184 214 234 221 242 249 247 223 227 229 224 227
170 171 172 172 172 154 153 245 132 159 168 247 202 119 121 120 18 352 171 44 273 166 157 342 138 248 30 161 154 159 145 188 160 57 139 1 185 42 187 163 86 355 300 150 41 259 97 162 72 113 102 139 131 194 204 159 146 247 307 339 54 54 98 322 34 315 241 302 289 202 156 271 296 213 223 217 190 204 221 235 236 242 244 231 225 206 210 214
175 172 174 177 170 182 328 82 136 168 186 28 339 110 126 70 249 250 32 156 254 131 150 232 220 339 1 172 177 167 16 123 142 201 10 149 346 79 42 174 171 175 228 99 190 358 138 162 154 142 161 139 184 204 190 164 157 200 268 326 72 71 66 46 47 301 287 7 301 117 147 251 267 221 193 197 191 203 219 238 242 246 242 232 211 186 196 191
174 174 173 180 170 208 242 332 197 192 83 284 48 129 102 125 269 154 187 222 125 122 326 133 316 165 116 156 201 145 149 3 304 94 246 54 14 145 187 246 216 183 193 184 210 78 6 142 199 159 145 183 84 15 354 161 143 267 194 62 90 69 64 57 1 30 317 34 272 154 175 203 279 286 198 174 183 195 221 225 230 242 227 161 139 148 115 82
172 174 174 167 168 218 247 276 267 68 149 90 210 130 153 195 124 201 141 247 136 183 96 96 198 165 158 152 184 158 154 86 45 132 158 156 174 268 15 137 293 213 172 83 70 50 96 197 182 44 181 100 126 52 41 65 88 139 171 88 41 61 94 19 73 66 30 260 252 154 197 177 283 303 173 138 202 193 205 216 236 234 140 181 168 142 128 110
172 173 173 166 185 186 179 240 238 188 73 209 176 192 139 149 197 171 188 205 2 87 81 146 133 145 163 164 168 193 143 121 146 145 129 196 72 318 175 24 359 50 31 35 108 140 139 40 268 112 315 129 114 70 18 18 106 135 117 125 92 332 34 30 330 63 150 267 289 173 174 182 212 282 320 225 220 193 161 175 209 183 286 138 142 124 119 121
179 174 168 173 172 141 191 231 89 113 100 276 225 150 168 152 313 207 188 61 229 172 174 175 168 163 179 170 139 175 160 134 162 166 153 173 150 176 204 181 155 114 275 171 226 71 201 221 138 45 298 161 152 95 21 20 357 55 127 125 118 229 65 311 99 253 194 239 272 347 170 323 240 228 218 181 207 242 304 30 40 265 329 311 135 138 125 137
184 179 173 178 179 183 220 58 248 130 142 247 198 161 180 167 200 197 226 148 244 142 187 156 162 169 171 167 169 162 145 164 164 191 136 175 162 210 206 198 183 171 188 180 175 99 264 78 140 107 29 253 184 132 171 40 220 180 162 153 121 194 198 244 214 204 258 270 341 65 19 247 279 297 217 250 229 207 202 249 213 203 235 251 217 140 138 155
186 181 179 187 189 190 182 148 127 156 149 224 173 150 270 201 207 195 220 189 110 317 151 151 147 154 168 185 169 156 155 195 153 174 158 161 187 187 213 237 194 226 67 144 176 175 201 297 232 132 237 174 198 202 177 169 165 200 179 162 173 161 174 211 174 203 221 229 243 285 92 236 98 260 257 223 238 232 214 223 217 219 227 236 224 133 146 162
185 186 185 180 202 201 177 141 137 219 170 179 164 180 180 205 204 194 216 186 122 104 75 138 148 152 183 148 138 167 125 163 173 155 181 163 202 199 184 203 213 199 173 174 215 117 207 215 247 173 2 154 189 214 154 112 113 206 208 260 277 227 100 196 181 353 338 355 326 223 209 223 184 240 275 21 8 194 213 216 199 229 250 258 250 152 177 195
190 191 175 194 192 192 159 144 144 191 208 178 174 191 200 186 203 199 221 112 148 127 129 120 133 156 167 166 316 170 318 113 187 156 200 202 198 199 192 188 196 194 176 196 148 155 94 227 346 17 45 168 194 7 201 140 185 212 139 213 195 321 117 340 353 58 101 38 257 160 282 255 290 265 241 238 225 225 222 226 212 219 232 244 259 243 223 197
204 178 197 186 197 171 151 142 147 170 239 216 182 205 203 214 217 197 118 162 142 128 140 138 204 172 175 181 178 179 149 81 175 147 200 167 260 212 206 214 180 191 209 173 242 176 147 214 323 60 197 319 238 271 343 48 32 98 183 222 100 49 95 125 208 7 180 220 263 121 239 279 326 291 240 205 212 234 212 225 218 214 223 241 256 264 266 247
204 201 213 200 182 158 151 144 140 135 143 194 205 209 205 228 214 221 115 121 143 153 156 160 179 170 172 159 187 170 192 165 182 176 197 165 252 188 198 206 188 194 202 202 181 271 149 196 261 359 349 321 329 7 352 14 58 109 178 336 128 247 271 245 92 257 247 245 281 258 250 270 222 246 305 199 198 221 223 226 221 228 227 235 242 251 262 264
192 185 224 178 136 155 152 140 136 133 163 189 208 215 209 224 210 210 157 147 156 155 184 181 122 214 169 190 159 169 164 181 166 194 159 199 215 192 193 180 203 194 195 191 209 205 89 190 278 320 0 98 17 133 198 195 342 133 14 348 135 90 179 155 194 199 139 243 204 277 332 269 137 230 194 233 199 203 216 219 217 215 212 226 228 219 201 191
200 163 249 134 151 149 152 144 145 125 154 202 200 227 203 223 211 212 197 149 181 177 201 179 160 162 200 197 162 161 202 192 167 194 196 175 205 202 182 183 178 185 172 188 206 122 226 148 235 281 308 43 195 202 211 162 175 250 193 256 135 145 276 109 286 178 167 199 218 272 292 264 250 220 189 218 187 189 201 208 196 213 224 217 204 190 175 175
241 266 206 145 143 131 136 166 170 163 179 223 238 227 220 249 197 221 220 184 182 209 211 193 169 185 174 168 183 164 169 183 179 188 195 199 182 239 194 173 148 160 148 171 197 157 179 149 190 124 315 220 230 195 205 192 191 185 186 204 192 157 183 173 262 187 210 168 235 259 258 277 152 16 90 101 156 183 182 176 198 204 213 187 163 170 167 176
231 224 183 154 139 141 146 194 67 13 184 187 201 205 212 14 258 214 225 194 217 184 9 219 197 182 169 194 165 173 150 185 187 185 207 200 208 220 181 163 167 152 153 173 195 193 164 170 129 182 208 209 197 2 84 91 76 233 185 238 186 192 152 163 205 256 179 248 262 233 8 269 175 241 37 88 83 94 79 74 104 178 170 175 181 171 187 182
244 228 12 164 154 148 162 180 109 168 190 261 356 358 329 304 324 236 214 183 217 200 188 204 195 195 182 186 167 165 162 187 182 200 197 215 227 202 189 175 155 164 154 87 58 343 67 99 111 266 138 100 31 70 40 49 47 325 305 15 153 189 190 194 188 188 182 200 214 243 227 263 353 14 68 90 347 57 66 49 358 295 207 182 158 175 186 180
249 267 45 198 175 152 179 177 173 188 212 324 223 257 359 352 329 317 256 208 202 174 203 183 203 212 219 178 169 182 168 206 202 197 218 199 237 215 181 168 154 167 161 191 169 180 148 228 153 145 273 298 18 358 348 360 34 201 217 198 218 208 192 197 104 53 244 204 210 173 235 255 283 327 358 32 74 295 318 299 208 207 229 195 195 235 221 185
282 290 232 199 224 185 192 175 169 178 193 164 172 219 243 252 203 254 332 323 277 224 200 219 205 171 218 156 198 175 183 199 155 214 209 188 210 340 200 167 172 174 200 184 175 164 152 162 155 171 201 216 224 208 200 202 212 217 216 214 207 198 190 151 217 200 225 240 211 210 251 256 209 24 65 32 60 309 285 267 294 320 218 257 218 225 207 158
195 243 159 209 224 202 228 153 160 160 177 168 183 217 211 227 272 244 224 275 332 347 11 342 203 198 192 120 208 197 193 202 208 151 200 198 167 315 344 189 172 185 181 144 165 160 162 180 178 186 200 223 233 209 200 141 103 179 218 199 207 210 205 197 184 203 221 236 227 228 237 265 259 210 23 315 354 245 245 272 267 264 269 276 267 261 217 210
319 230 160 204 161 266 202 165 170 168 195 173 192 163 195 216 215 237 190 255 238 221 1 15 238 185 197 188 202 219 200 198 215 200 188 187 68 145 358 27 203 101 139 110 156 84 90 191 209 208 216 230 234 190 193 154 178 201 199 205 203 198 201 204 199 225 217 231 258 240 235 255 266 247 232 263 261 257 263 250 233 243 252 244 246 259 267 268
229 252 199 185 186 207 210 194 174 191 187 172 212 153 190 200 208 215 178 220 290 203 163 312 306 259 196 199 196 214 192 217 189 214 186 171 96 75 107 4 52 341 269 153 182 146 149 202 217 215 229 236 237 225 164 183 184 189 199 191 192 200 203 208 223 232 212 204 239 257 218 242 263 271 194 209 247 250 233 234 227 224 240 284 281 268 265 258
263 351 307 338 185 175 204 314 185 184 182 181 219 195 190 194 198 205 195 183 215 205 174 230 233 231 243 226 203 217 203 206 225 216 205 121 159 128 136 10 288 68 185 147 140 198 137 235 210 210 229 237 243 237 196 185 203 188 192 196 195 196 206 211 222 229 227 236 247 258 262 257 265 271 264 264 279 284 291 290 288 288 283 277 270 267 264 258
198 214 237 174 287 314 34 261 203 186 192 179 187 204 194 191 204 199 204 177 184 219 181 220 225 228 224 229 221 220 213 219 210 220 181 151 202 180 189 180 150 20 47 177 160 291 157 225 202 189 220 243 245 247 233 229 225 248 266 228 209 205 209 212 217 226 231 244 245 252 260 265 258 259 289 272 273 301 288 278 277 279 283 280 278 276 272 270
339 22 8 318 212 217 197 177 205 214 201 187 196 204 193 201 211 189 200 190 193 190 188 211 220 220 223 229 252 257 283 44 58 352 184 162 189 216 140 268 135 157 172 150 160 234 159 269 42 113 213 246 243 224 210 96 54 291 255 253 247 230 221 210 215 213 217 225 235 253 262 260 265 273 274 286 278 270 278 277 274 274 276 284 289 286 279 275
246 214 66 326 272 175 210 189 205 199 218 202 203 197 188 210 209 172 216 206 210 209 194 206 215 205 217 217 226 224 223 114 137 160 98 70 70 64 77 145 145 157 171 171 130 146 172 159 165 169 209 239 244 140 133 123 103 267 250 238 231 237 229 211 223 218 222 217 224 225 240 254 272 279 274 276 282 274 272 279 283 279 280 289 289 283 280 276